Regional Weather Roundup
Issued by NWS

Home | Current Version | Previous Version | Text Only | Print | Product List | Glossary Off
Versions: 1 2 3 4 5 6 7 8 9 10 11 12 13 14 15 16 17 18 19 20 21 22 23 24 25 26 27 28 29 30 31 32 33 34 35 36 37 38 39 40 41 42 43 44 45 46 47 48 49 50

612
ASUS45 KCYS 221210
RWRWY

WYOMING REGIONAL WEATHER ROUNDUP
NATIONAL WEATHER SERVICE CHEYENNE WY
600 AM MDT MON MAY 22 2017

NOTE:  "FAIR" INDICATES FEW OR NO CLOUDS BELOW 12,000 FEET
WITH NO SIGNIFICANT WEATHER AND/OR OBSTRUCTIONS TO VISIBILITY.

WYZ001-221300-
YELLOWSTONE NATIONAL PARK

CITY           SKY/WX    TMP DP  RH WIND       PRES   REMARKS
LK YELLOWSTONE   N/A     28  26  92 CALM      30.34F
6HR MIN TEMP:  27; 6HR MAX TEMP:  30;

W YELLOWSTONE  NOT AVBL

$$
WYZ002>013-054>058-071-098>099-221300-
NORTHERN WYOMING

CITY           SKY/WX    TMP DP  RH WIND       PRES   REMARKS
JACKSON        FAIR      28  27  93 NE3       30.31F
CODY           FAIR      53  31  42 SW3       30.18F
GREYBULL       CLOUDY    48  35  60 S6        30.13F
6HR MIN TEMP:  47; 6HR MAX TEMP:  52;

WORLAND        MOCLDY    44  38  79 CALM      30.15R
6HR MIN TEMP:  42; 6HR MAX TEMP:  46;

SHERIDAN       LGT RAIN  47  42  83 S3        30.10F
6HR MIN TEMP:  46; 6HR MAX TEMP:  57; 6HR PCP: TRACE;

BUFFALO        LGT RAIN  45  38  76 W7        30.13F
6HR MIN TEMP:  45; 6HR MAX TEMP:  55; 6HR PCP:  0.01;

GILLETTE       FAIR      45  42  89 W9        30.08F
6HR MIN TEMP:  37; 6HR MAX TEMP:  49; 6HR PCP:  0.02;

HULETT         FAIR      43  39  87 SW6       30.07S
NEWCASTLE      RAIN      43  41  93 NW12G25   30.11R

$$
WYZ014>020-022>026-101>103-221300-
CENTRAL WYOMING

CITY           SKY/WX    TMP DP  RH WIND       PRES   REMARKS
BIG PINEY      FAIR      28  27  96 CALM      30.31F
6HR MIN TEMP:  26; 6HR MAX TEMP:  37;

PINEDALE       FAIR      28  28 100 W6        30.32S WCI  22
DUBOIS         FAIR      36  27  69 NW17      30.26F WCI  25
LANDER         FAIR      41  32  70 SW5       30.20F
6HR MIN TEMP:  37; 6HR MAX TEMP:  47;

RIVERTON       FAIR      40  36  86 NW9       30.20F WCI  34
6HR MIN TEMP:  40; 6HR MAX TEMP:  45;

CASPER         CLOUDY    41  36  82 SW13      30.16F
6HR MIN TEMP:  37; 6HR MAX TEMP:  41;

DOUGLAS        FAIR      36  33  89 NW6       30.14F WCI  31
6HR MIN TEMP:  35; 6HR MAX TEMP:  45;


$$
WYZ021-027>030-104>119-221300-
SOUTHERN WYOMING

CITY           SKY/WX    TMP DP  RH WIND       PRES   REMARKS
EVANSTON       FAIR      38  37  97 SW5       30.31S WCI  34
6HR MIN TEMP:  37; 6HR MAX TEMP:  43;

KEMMERER         N/A     34  32  93 NW8       30.31F WCI  27
ROCK SPRINGS   FAIR      35  32  88 NW6       30.29S WCI  30
6HR MIN TEMP:  35; 6HR MAX TEMP:  42;

DIXON            N/A     31  29  92 CALM      30.32R
RAWLINS        MOCLDY    36  30  79 VRB7      30.26S WCI  30
6HR MIN TEMP:  30; 6HR MAX TEMP:  38;

SARATOGA       FAIR      32  32 100 SE8       30.28  WCI  25
LARAMIE        FAIR      27  26  96 SE8       30.22S FOG     WCI  19
6HR MIN TEMP:  26; 6HR MAX TEMP:  35;

CHEYENNE       FAIR      37  32  82 W12       30.18F WCI  29
6HR MIN TEMP:  35; 6HR MAX TEMP:  40;

TORRINGTON     FAIR      39  37  92 W6        30.10F WCI  35
6HR MIN TEMP:  38; 6HR MAX TEMP:  46;


$$




USA.gov is the U.S. government's official web portal to all federal, state and local government web resources and services.